Location: Newark
(7.0858°N, 171.3717°E)
Time: 06:42:43
(UTC+00:00)

Courier 1B - Pass Details

Date: 03 December 2020
Orbit: 962 x 1209 km, 28.3° (Epoch: 19 January)

Event Time Altitude Azimuth Distance (km) Brightness Sun altitude
Rises 17:48:26 0° 275° (W) 4,022 - -11.0°
Exits shadow 17:51:15 - 266° (W) 3,218 9.7 -10.4°
Reaches altitude 10° 17:51:45 10° 263° (W) 3,090 9.6 -10.3°
Maximum altitude 17:57:56 26° 210° (SSW) 2,154 9.2 -8.8°
Drops below altitude 10° 18:04:14 10° 156° (SSE) 3,141 10.9 -7.4°
Sets 18:07:40 0° 144° (SE) 4,100 11.9 -6.6°
